Content
SEND FEEDBACK

Daily
Averages
Monthly
Summary
French Polynesia

PAPEETE, FRENCH POLYNESIA


Home > Oceania > French Polynesia
Elevation: 7 feet     Latitude: 17 33S     Longitude: 149 36W

WEATHER
 
SELECT A DAY
Number of Records: 208,734;   Date Range: 6/30/96 - 8/31/14
 
SHARE

PRINT THIS DATA

[ ← Previous Day ]
WEATHER ALMANAC - MARCH 20, 2013
[ Next Day → ]
[ °C ]   °F
Weather ElementAverageHighLow
Temperature83.2 °F90 °F (2:00 pm)77 °F (4:00 am)
Dewpoint73 °F77 °F (10:30 am)69.8 °F (6:00 am)
Humidity70.8 %89 % (4:00 am)49 % (2:00 pm)
Barometer29.94 in29.99 in (8:00 am)29.89 in (2:00 pm)
Wind Speed4.6 mph9.2 mph (2:00 pm)
Weather ElementAverage
Visibility7.9 mi
Wind DirectionSSE (149.8 °)

Weather ElementTotal
Precipitation---
Cooling Degree Days18.5 (Base 65)
Growing Degree Days33.5 (Base 50)
Averaged from 53 records on March 20, 2013
WEATHER CONDITIONS BREAKOUT
WIND DIRECTION BREAKOUT
WEATHER BY HOUR - MARCH 20, 2013
[ °C ]   °F
Local TimeTemperatureDewpointHumidityBarometerVisibilityWind DirectionWind SpeedGust SpeedPrecipitationEventsConditions
12:30 AM78.8 °F73.4 °F83 %29.95 in6.2 miVariable2.3 mphScattered Clouds
1:00 AM78.8 °F73.4 °F83 %29.95 in6.2 miSouth (180°)4.6 mphScattered Clouds
1:30 AM78.8 °F73.4 °F83 %29.95 in6.2 miVariable2.3 mphScattered Clouds
2:00 AM79.0 °F73.0 °F78 %29.95 in12.0 miEast (90°)3.5 mphPartly Cloudy
2:00 AM78.8 °F73.4 °F83 %29.95 in6.2 miEast (90°)3.5 mphScattered Clouds
2:30 AM78.8 °F73.4 °F83 %29.92 in6.2 miESE (120°)4.6 mphScattered Clouds
3:00 AM78.8 °F73.4 °F83 %29.92 in6.2 miESE (120°)3.5 mphScattered Clouds
3:30 AM78.8 °F73.4 °F83 %29.92 in6.2 miVariable3.5 mph
4:00 AM77.0 °F73.4 °F89 %29.92 in6.2 miVariable2.3 mph
4:30 AM77.0 °F71.6 °F83 %29.92 in6.2 miVariable2.3 mph
5:00 AM77.0 °F72.0 °F79 %29.94 in37.0 miEast (90°)1.2 mphClear
5:00 AM77.0 °F71.6 °F83 %29.92 in6.2 miVariable1.2 mph
6:00 AM77.0 °F69.8 °F78 %29.95 in6.2 miCalmPartly Cloudy
6:30 AM77.0 °F69.8 °F78 %29.95 in6.2 miSouth (190°)3.5 mphPartly Cloudy
7:00 AM78.8 °F71.6 °F78 %29.95 in6.2 miSouth (190°)4.6 mphPartly Cloudy
7:30 AM80.6 °F71.6 °F74 %29.98 in6.2 miSouth (180°)5.8 mphPartly Cloudy
8:00 AM83.0 °F73.0 °F65 %29.99 in25.0 miSouth (190°)5.8 mphPartly Cloudy
8:00 AM84.2 °F73.4 °F70 %29.98 in6.2 miSouth (190°)5.8 mphPartly Cloudy
8:30 AM84.2 °F73.4 °F70 %29.98 in6.2 miSW (220°)6.9 mphPartly Cloudy
9:00 AM86.0 °F73.4 °F66 %29.98 in6.2 miWSW (240°)3.5 mphPartly Cloudy
9:30 AM86.0 °F75.2 °F70 %29.98 in6.2 miWest (260°)3.5 mphPartly Cloudy
10:00 AM86.0 °F75.2 °F70 %29.98 in6.2 miWest (260°)5.8 mphPartly Cloudy
10:30 AM86.0 °F77.0 °F74 %29.95 in6.2 miWest (260°)4.6 mphPartly Cloudy
11:00 AM87.0 °F75.0 °F60 %29.97 in25.0 miWNW (290°)3.5 mphScattered Clouds
11:00 AM86.0 °F75.2 °F70 %29.95 in6.2 miWNW (290°)3.5 mphPartly Cloudy
11:30 AM87.8 °F75.2 °F66 %29.95 in6.2 miWSW (250°)5.8 mphPartly Cloudy
12:00 PM87.8 °F75.2 °F66 %29.95 in6.2 miWSW (240°)8.1 mphPartly Cloudy
12:30 PM87.8 °F75.2 °F66 %29.92 in6.2 miSW (230°)8.1 mphPartly Cloudy
1:00 PM89.6 °F73.4 °F59 %29.92 in6.2 miWest (260°)6.9 mphThunderstormThunderstorm
1:30 PM89.6 °F75.2 °F62 %29.92 in6.2 miWest (260°)6.9 mphPartly Cloudy
2:00 PM90.0 °F73.0 °F49 %29.91 in12.0 miWSW (240°)9.2 mphThunderstormThunderstorm
2:00 PM89.6 °F73.4 °F59 %29.89 in6.2 miWSW (240°)9.2 mphThunderstormPartly Cloudy
2:30 PM89.6 °F75.2 °F62 %29.89 in6.2 miWSW (240°)9.2 mphPartly Cloudy
3:00 PM89.6 °F75.2 °F62 %29.89 in6.2 miWest (270°)5.8 mphPartly Cloudy
3:30 PM89.6 °F73.4 °F59 %29.89 in6.2 miWest (260°)5.8 mphPartly Cloudy
4:00 PM87.8 °F73.4 °F62 %29.89 in6.2 miNW (310°)5.8 mphPartly Cloudy
4:30 PM87.8 °F73.4 °F62 %29.89 in6.2 miNNW (340°)5.8 mphPartly Cloudy
5:00 PM87.8 °F73.4 °F62 %29.89 in6.2 miNorth (360°)6.9 mphScattered Clouds
5:30 PM86.0 °F73.4 °F66 %29.89 in6.2 miNNE (20°)6.9 mphPartly Cloudy
6:00 PM84.2 °F73.4 °F70 %29.89 in6.2 miNE (40°)5.8 mphPartly Cloudy
6:30 PM84.2 °F73.4 °F70 %29.92 in6.2 miEast (100°)4.6 mphPartly Cloudy
7:00 PM84.2 °F71.6 °F66 %29.92 in6.2 miVariable3.5 mphPartly Cloudy
7:30 PM82.4 °F73.4 °F74 %29.92 in6.2 miNNE (30°)3.5 mphPartly Cloudy
8:00 PM82.0 °F71.0 °F62 %29.95 in12.0 miSouth (170°)2.3 mphPartly Cloudy
8:00 PM82.4 °F71.6 °F70 %29.95 in6.2 miVariable2.3 mphPartly Cloudy
8:30 PM82.4 °F71.6 °F70 %29.95 in6.2 miVariable2.3 mphPartly Cloudy
9:00 PM80.6 °F69.8 °F70 %29.95 in6.2 miSouth (180°)3.5 mphPartly Cloudy
9:30 PM82.4 °F71.6 °F70 %29.95 in6.2 miSouth (170°)4.6 mphPartly Cloudy
10:00 PM80.6 °F71.6 °F74 %29.95 in6.2 miNE (40°)5.8 mphPartly Cloudy
10:30 PM80.6 °F69.8 °F70 %29.95 in6.2 miENE (60°)4.6 mphPartly Cloudy
11:00 PM80.0 °F71.0 °F66 %29.96 in12.0 miEast (90°)3.5 mphScattered Clouds
11:00 PM80.6 °F69.8 °F70 %29.95 in6.2 miEast (90°)3.5 mphPartly Cloudy
11:30 PM80.6 °F71.6 °F74 %29.95 in6.2 miVariable2.3 mphPartly Cloudy
Hourly data recorded from NTAA, located miles away from Papeete, French Polynesia







STORIES FROM OUR PARTNERS